Back to catalog

STARLINK-34607

AliveCommunicationsVLEO
NORAD 64742·PAYLOAD·🇺🇸 United States

Launched Jul 2, 2025 from Cape Canaveral Space Force Station

Loading…

Next Passes (next 24 hours)

TLE

FreshSource: CelesTrak SupGP

Epoch: Sep 14, 2026, 14:31 UTC

1 64742C 25144U   26257.60534722 -.00084263  00000+0 -24902-2 0  2570
2 64742  53.1601  22.9578 0001215  81.5052 292.3073 15.34425063    14

Track STARLINK-34607 in real time with AllMySat

Download on the App Store